Regional Weather Roundup
Issued by NWS

Home | Current Version | Previous Version | Graphics & Text | Print | Product List | Glossary Off
Versions: 1 2 3 4 5 6 7 8 9 10 11 12 13 14 15 16 17 18 19 20 21 22 23 24 25 26 27 28 29 30 31 32 33 34 35 36 37 38 39 40 41 42 43 44 45 46 47 48 49 50

000
ASUS43 KTOP 241908
RWRKS

WEATHER ROUNDUP FOR KANSAS
NATIONAL WEATHER SERVICE GOODLAND KS
200 PM CDT WED MAY 24 2017

NOTE:  "FAIR" INDICATES FEW OR NO CLOUDS BELOW 12,000 FEET WITH NO
SIGNIFICANT WEATHER AND/OR OBSTRUCTIONS TO VISIBILITY.

KSZ001>006-013>018-027>032-041>047-242000-
NORTHWEST KANSAS

CITY           SKY/WX    TMP DP  RH WIND       PRES   REMARKS
GOODLAND       SUNNY     67  43  41 S13G21    29.74F
HILL CITY      SUNNY     64  40  41 SE6       29.77F
RUSSELL        MOSUNNY   62  44  51 W8        29.77F
$$

KSZ061>065-074>080-084>089-242000-
SOUTHWEST KANSAS

CITY           SKY/WX    TMP DP  RH WIND       PRES   REMARKS
DODGE CITY     SUNNY     67  41  38 NW9       29.79F
ELKHART          N/A     73  43  34 S5          N/A
GARDEN CITY    SUNNY     68  38  33 VRB7      29.77F
GREAT BEND     MOSUNNY   61  44  53 VRB6      29.79F
LIBERAL        SUNNY     69  43  38 S7        29.79F
PRATT          MOSUNNY   60  40  47 NW9       29.80F
$$

KSZ066>073-081>083-090>101-242000-
SOUTHEAST KANSAS

CITY           SKY/WX    TMP DP  RH WIND       PRES   REMARKS
CHANUTE        PTSUNNY   66  47  50 NW13G23   29.72F
COFFEYVILLE    CLOUDY    66  50  56 NW15      29.74S
HUTCHINSON     CLOUDY    61  42  49 W9        29.78F
MEDICINE LODGE   N/A     67  42  40 N8G16     29.79F
NEWTON         PTSUNNY   62  44  51 NW7       29.78
PARSONS        PTSUNNY   68  49  50 NW14      29.74F
WICHITA INTL   PTSUNNY   62  44  51 VRB7      29.78F
WICHITA JABRA  MOSUNNY   64  45  49 NW9       29.77F
WICHITA MCCONL PTSUNNY   63  43  47 NW13G20   29.78S
WINFIELD       PTSUNNY   62  44  51 NW12G21   29.79F
$$

KSZ007>012-019>026-033>040-048>060-102>105-242000-
NORTHEAST KANSAS

CITY           SKY/WX    TMP DP  RH WIND       PRES   REMARKS
CONCORDIA      PTSUNNY   62  46  55 W6        29.75F
EMPORIA        MOSUNNY   65  46  50 NW13      29.73F
LAWRENCE       PTSUNNY   65  49  56 NW13G23   29.70S
MANHATTAN      PTSUNNY   67  47  48 NW6       29.73F
MARYSVILLE     MOSUNNY   64  46  52 NE7       29.73F
OLATHE IND     PTSUNNY   62  49  62 N12G22    29.70F
OLATHE EXE     PTSUNNY   63  51  65 NW13G21   29.69S
SALINA         MOSUNNY   66  44  45 N5        29.77F
TOPEKA BILLARD PTSUNNY   66  49  54 NW13      29.70F
TOPEKA FORBES  PTSUNNY   67  48  50 N12       29.71S
$$




USA.gov is the U.S. government's official web portal to all federal, state and local government web resources and services.